sat.trackr.live / text

‹ back to catalog

STARLINK-31542

NORAD 59194 · 2024-045S

PAYLOAD ACTIVE UNKNOWN

§ Identity

Operator
Country
US
Launch date
2024-03-10
Launch site
AFETR
Launch vehicle
Mass (kg)
RCS (m²)

Purposes: comms

External: N2YO · Heavens-Above · Gunter

§ Orbital elements

Epoch: 2026-05-25T01:06:38.459808Z

Period
94.27 min
Inclination
43.0049°
Eccentricity
0.0001610
Mean motion
15.27581162 rev/d
Perigee alt
481.9 km
Apogee alt
484.2 km
Semi-major
6,861.2 km
B*
9.1889e-5
RAAN
20.9359°
Arg perigee
288.9948°
Mean anomaly
71.0729°
Rev number
12,484

§ Raw data

STARLINK-315421 59194U 24045S   26145.04627847  .00002267  00000+0  91889-4 0  99942 59194  43.0049  20.9359 0001610 288.9948  71.0729 15.27581162124847

JSON: /api/v1/satellites/59194 · /tle

For live sub-satellite position, see the globe view (requires WebGL).

§ Visibility from observer

Set your observer location to see the next 7 days of passes ≥ 10°. The values pass through the URL so the page stays shareable.

No JS? Fill the form by hand. The geolocation button needs JavaScript.